Archiv-/Tagesdaten

--Timestamp---	Temp	Chill	HIndex	Humid	Dewpt	 Wind 	HiWind	WindDir	Rain 	Barom	Solar	 ET  	 UV 
--------------	----	-----	------	-----	-----	------	------	-------	-----	-----	-----	-----	----
20260429 00:00	13.3	13.3	13.3	52	3.7	5	10	68	0.0	1016.5	0	0.051	0.0
20260429 00:05	13.2	13.2	13.2	52	3.6	5	8	68	0.0	1016.3	0	0.000	0.0
20260429 00:10	13.1	13.1	13.1	53	3.7	3	8	45	0.0	1016.3	0	0.000	0.0
20260429 00:15	12.9	12.9	12.9	53	3.6	5	8	45	0.0	1016.5	0	0.000	0.0
20260429 00:20	12.8	12.8	12.8	53	3.4	5	8	45	0.0	1016.5	0	0.000	0.0
20260429 00:25	12.7	12.7	12.7	54	3.6	5	10	45	0.0	1016.5	0	0.000	0.0
20260429 00:30	12.6	12.6	12.6	54	3.5	5	8	45	0.0	1016.6	0	0.000	0.0
20260429 00:35	12.4	12.4	12.4	54	3.4	5	8	45	0.0	1016.6	0	0.000	0.0
20260429 00:40	12.3	12.3	12.3	55	3.5	5	8	68	0.0	1016.6	0	0.000	0.0
20260429 00:45	12.3	12.3	12.3	55	3.5	3	10	45	0.0	1016.6	0	0.000	0.0
20260429 00:50	12.3	12.3	12.3	55	3.5	3	10	68	0.0	1016.6	0	0.000	0.0
20260429 00:55	12.3	12.3	12.3	55	3.5	5	8	68	0.0	1016.6	0	0.000	0.0
20260429 01:00	12.2	12.2	12.2	55	3.4	3	6	68	0.0	1016.7	0	0.051	0.0
20260429 01:05	12.1	12.1	12.1	56	3.6	3	10	68	0.0	1016.6	0	0.000	0.0
20260429 01:10	12.2	12.2	12.2	56	3.6	3	11	68	0.0	1016.6	0	0.000	0.0
20260429 01:15	12.2	12.2	12.2	55	3.4	3	10	68	0.0	1016.6	0	0.000	0.0
20260429 01:20	12.2	12.2	12.2	56	3.7	3	6	45	0.0	1016.6	0	0.000	0.0
20260429 01:25	12.1	12.1	12.1	56	3.5	3	5	68	0.0	1016.6	0	0.000	0.0
20260429 01:30	11.9	11.9	11.9	57	3.7	3	5	68	0.0	1016.6	0	0.000	0.0
20260429 01:35	11.8	11.8	11.8	57	3.6	3	5	45	0.0	1016.7	0	0.000	0.0
20260429 01:40	11.7	11.7	11.7	57	3.5	2	5	45	0.0	1016.7	0	0.000	0.0
20260429 01:45	11.6	11.6	11.6	58	3.6	2	6	45	0.0	1016.7	0	0.000	0.0
20260429 01:50	11.5	11.5	11.5	58	3.5	3	6	45	0.0	1016.8	0	0.000	0.0
20260429 01:55	11.4	11.4	11.4	58	3.5	3	8	45	0.0	1016.7	0	0.000	0.0
20260429 02:00	11.4	11.4	11.4	58	3.5	3	8	45	0.0	1016.7	0	0.051	0.0
20260429 02:05	11.4	11.4	11.4	57	3.2	5	10	45	0.0	1016.5	0	0.000	0.0
20260429 02:10	11.4	11.4	11.4	57	3.2	5	10	45	0.0	1016.5	0	0.000	0.0
20260429 02:15	11.4	11.4	11.4	57	3.2	3	11	45	0.0	1016.5	0	0.000	0.0
20260429 02:20	11.3	11.3	11.3	57	3.1	5	8	45	0.0	1016.7	0	0.000	0.0
20260429 02:25	11.2	11.2	11.2	58	3.2	3	8	45	0.0	1016.7	0	0.000	0.0
20260429 02:30	11.0	11.0	11.0	58	3.1	5	6	45	0.0	1016.7	0	0.000	0.0
20260429 02:35	10.9	10.9	10.9	59	3.2	5	8	45	0.0	1016.7	0	0.000	0.0
20260429 02:40	10.9	10.9	10.9	58	3.0	5	10	45	0.0	1016.7	0	0.000	0.0
20260429 02:45	10.9	10.9	10.9	58	3.0	5	11	45	0.0	1016.7	0	0.000	0.0
20260429 02:50	10.9	10.9	10.9	58	3.0	5	8	45	0.0	1016.7	0	0.000	0.0
20260429 02:55	10.9	10.9	10.9	58	3.0	5	8	45	0.0	1016.7	0	0.000	0.0
20260429 03:00	11.0	11.0	11.0	58	3.1	5	11	45	0.0	1016.7	0	0.051	0.0
20260429 03:05	11.0	11.0	11.0	57	2.8	5	10	45	0.0	1016.6	0	0.000	0.0
20260429 03:10	11.1	11.1	11.1	57	2.9	5	14	45	0.0	1016.6	0	0.000	0.0
20260429 03:15	11.2	11.2	11.2	57	3.0	5	11	45	0.0	1016.7	0	0.000	0.0
20260429 03:20	11.2	11.2	11.2	57	3.0	3	10	68	0.0	1016.7	0	0.000	0.0
20260429 03:25	11.2	11.2	11.2	57	3.0	5	10	68	0.0	1016.6	0	0.000	0.0
20260429 03:30	11.1	11.1	11.1	57	2.9	5	11	68	0.0	1016.6	0	0.000	0.0
20260429 03:35	11.1	11.1	11.1	57	2.9	5	10	68	0.0	1016.7	0	0.000	0.0
20260429 03:40	11.1	11.1	11.1	57	2.9	5	13	68	0.0	1016.7	0	0.000	0.0
20260429 03:45	10.9	10.9	10.9	58	3.0	5	11	45	0.0	1016.7	0	0.000	0.0
20260429 03:50	10.8	10.8	10.8	58	2.9	5	10	45	0.0	1016.8	0	0.000	0.0
20260429 03:55	10.7	10.7	10.7	59	3.0	3	11	68	0.0	1016.8	0	0.000	0.0
20260429 04:00	10.6	10.6	10.6	59	2.9	2	6	68	0.0	1016.8	0	0.051	0.0
20260429 04:05	10.6	10.6	10.6	59	2.9	2	6	68	0.0	1016.6	0	0.000	0.0
20260429 04:10	10.5	10.5	10.5	59	2.8	2	6	68	0.0	1016.7	0	0.000	0.0
20260429 04:15	10.4	10.4	10.4	60	3.0	2	6	68	0.0	1016.6	0	0.000	0.0
20260429 04:20	10.4	10.4	10.4	60	3.0	2	5	68	0.0	1016.7	0	0.000	0.0
20260429 04:25	10.3	10.3	10.3	60	2.9	2	5	68	0.0	1016.6	0	0.000	0.0
20260429 04:30	10.3	10.3	10.3	60	2.9	3	11	68	0.0	1016.6	0	0.000	0.0
20260429 04:35	10.3	10.3	10.3	60	2.9	3	8	68	0.0	1016.8	0	0.000	0.0
20260429 04:40	10.3	10.3	10.3	60	2.9	5	10	68	0.0	1016.8	0	0.000	0.0
20260429 04:45	10.3	10.3	10.3	60	2.9	5	10	68	0.0	1016.8	0	0.000	0.0
20260429 04:50	10.2	10.2	10.2	60	2.8	5	11	68	0.0	1016.9	0	0.000	0.0
20260429 04:55	10.2	10.2	10.2	60	2.8	5	14	68	0.0	1017.0	0	0.000	0.0
20260429 05:00	10.2	10.2	10.2	60	2.8	5	10	68	0.0	1016.9	0	0.025	0.0
20260429 05:05	10.2	10.2	10.2	60	2.7	5	11	68	0.0	1017.0	0	0.000	0.0
20260429 05:10	10.1	10.1	10.1	60	2.6	5	11	68	0.0	1017.1	0	0.000	0.0
20260429 05:15	10.1	10.1	10.1	60	2.6	6	14	68	0.0	1017.1	0	0.000	0.0
20260429 05:20	10.0	10.0	10.0	60	2.6	5	11	68	0.0	1017.1	0	0.000	0.0
20260429 05:25	10.1	10.1	10.1	60	2.6	8	23	68	0.0	1017.1	0	0.000	0.0
20260429 05:30	10.0	10.0	10.0	60	2.6	6	21	68	0.0	1017.1	0	0.000	0.0
20260429 05:35	9.9	9.9	9.9	60	2.5	5	13	68	0.0	1017.1	0	0.000	0.0
20260429 05:40	9.9	9.9	9.9	60	2.5	5	16	68	0.0	1017.2	0	0.000	0.0
20260429 05:45	9.9	9.9	9.9	60	2.5	5	10	68	0.0	1017.3	0	0.000	0.0
20260429 05:50	9.8	9.8	9.8	61	2.7	5	14	68	0.0	1017.4	0	0.000	0.0
20260429 05:55	9.8	9.8	9.8	61	2.6	3	6	68	0.0	1017.4	0	0.000	0.0
20260429 06:00	9.7	9.7	9.7	61	2.6	3	8	68	0.0	1017.5	3	0.025	0.0
20260429 06:05	9.7	9.7	9.7	61	2.5	3	8	68	0.0	1017.7	7	0.000	0.0
20260429 06:10	9.6	9.6	9.6	61	2.5	5	8	68	0.0	1017.7	9	0.000	0.0
20260429 06:15	9.6	9.6	9.6	61	2.4	3	5	68	0.0	1017.8	12	0.000	0.0
20260429 06:20	9.6	9.6	9.6	62	2.6	3	5	68	0.0	1017.8	14	0.000	0.0
20260429 06:25	9.5	9.5	9.5	62	2.6	3	6	68	0.0	1017.9	16	0.000	0.0
20260429 06:30	9.5	9.5	9.5	62	2.6	2	6	68	0.0	1018.0	16	0.000	0.0
20260429 06:35	9.6	9.6	9.6	61	2.4	3	8	68	0.0	1018.0	17	0.000	0.0
20260429 06:40	9.6	9.6	9.6	61	2.4	3	10	68	0.0	1017.9	20	0.000	0.0
20260429 06:45	9.6	8.9	9.6	60	2.2	6	16	68	0.0	1018.0	25	0.000	0.0
20260429 06:50	9.6	8.9	9.6	60	2.2	6	11	68	0.0	1018.1	28	0.000	0.0
20260429 06:55	9.6	8.9	9.6	59	2.0	6	16	68	0.0	1018.2	36	0.000	0.0
20260429 07:00	9.6	9.6	9.6	59	2.0	5	16	90	0.0	1018.3	43	0.025	0.0
20260429 07:05	9.7	9.7	9.7	59	2.0	5	8	68	0.0	1018.5	50	0.000	0.0
20260429 07:10	9.7	9.0	9.7	58	1.8	6	16	68	0.0	1018.6	56	0.000	0.0
20260429 07:15	9.8	9.1	9.8	57	1.7	6	16	68	0.0	1018.6	59	0.000	0.0
20260429 07:20	9.7	9.1	9.7	56	1.4	6	16	68	0.0	1018.7	63	0.000	0.0
20260429 07:25	9.8	9.1	9.8	56	1.4	6	18	68	0.0	1018.8	69	0.000	0.0
20260429 07:30	9.8	9.8	9.8	55	1.2	5	18	68	0.0	1018.8	75	0.000	0.0
20260429 07:35	9.9	9.9	9.9	55	1.3	5	14	68	0.0	1018.8	78	0.000	0.0
20260429 07:40	9.9	9.3	9.9	54	1.1	6	18	68	0.0	1018.9	77	0.000	0.0
20260429 07:45	9.9	9.9	9.9	54	1.1	5	11	90	0.0	1018.9	80	0.000	0.0
20260429 07:50	10.0	10.0	10.0	55	1.4	5	11	68	0.0	1018.9	88	0.000	0.0
20260429 07:55	10.0	10.0	10.0	54	1.1	8	19	68	0.0	1019.0	97	0.000	0.0
20260429 08:00	10.1	10.1	10.1	53	0.9	8	21	68	0.0	1019.1	105	0.076	0.0
20260429 08:05	10.2	10.2	10.2	53	1.0	6	24	68	0.0	1019.2	118	0.000	0.0
20260429 08:10	10.3	10.3	10.3	53	1.1	5	14	112	0.0	1019.2	129	0.000	0.0
20260429 08:15	10.3	10.3	10.3	52	0.9	6	21	68	0.0	1019.2	139	0.000	0.0
20260429 08:20	10.3	10.3	10.3	52	0.9	10	19	68	0.0	1019.2	145	0.000	0.0
20260429 08:25	10.5	10.5	10.5	53	1.3	5	11	68	0.0	1019.3	145	0.000	0.0
20260429 08:30	10.4	10.4	10.4	55	1.7	8	19	68	0.0	1019.3	153	0.000	0.0
20260429 08:35	10.4	10.4	10.4	54	1.5	8	18	68	0.0	1019.3	176	0.000	0.0
20260429 08:40	10.6	10.6	10.6	53	1.4	10	24	68	0.0	1019.5	215	0.000	0.5
20260429 08:45	10.8	10.8	10.8	53	1.6	6	19	90	0.0	1019.4	244	0.000	0.5
20260429 08:50	10.9	10.9	10.9	51	1.2	10	19	68	0.0	1019.4	218	0.000	0.5
20260429 08:55	10.8	10.8	10.8	49	0.5	10	23	68	0.0	1019.4	204	0.000	0.5
20260429 09:00	10.8	10.8	10.8	48	0.2	11	23	68	0.0	1019.5	206	0.127	0.6
20260429 09:05	10.9	10.9	10.9	48	0.3	8	18	112	0.0	1019.6	220	0.000	0.6
20260429 09:10	11.0	11.0	11.0	47	0.1	10	23	68	0.0	1019.6	227	0.000	0.7
20260429 09:15	11.1	11.1	11.1	46	-0.1	10	19	68	0.0	1019.6	235	0.000	0.7
20260429 09:20	11.2	11.2	11.2	47	0.3	8	18	90	0.0	1019.6	309	0.000	0.8
20260429 09:25	11.6	11.6	11.6	45	0.1	11	23	90	0.0	1019.5	349	0.000	0.9
20260429 09:30	11.9	11.9	11.9	43	-0.2	11	27	90	0.0	1019.5	354	0.000	0.9
20260429 09:35	12.1	12.1	12.1	42	-0.4	11	29	68	0.0	1019.5	350	0.000	1.0
20260429 09:40	12.3	12.3	12.3	42	-0.2	11	21	90	0.0	1019.6	362	0.000	1.0
20260429 09:45	12.4	12.4	12.4	40	-0.8	16	29	90	0.0	1019.5	367	0.000	1.1
20260429 09:50	12.4	12.4	12.4	41	-0.4	11	26	68	0.0	1019.5	217	0.000	0.9
20260429 09:55	12.5	12.5	12.5	41	-0.4	13	27	68	0.0	1019.5	212	0.000	0.9
20260429 10:00	12.7	12.7	12.7	40	-0.6	16	31	90	0.0	1019.5	217	0.203	0.9
20260429 10:05	12.8	12.8	12.8	41	-0.1	10	18	90	0.0	1019.7	226	0.000	1.0
20260429 10:10	12.9	12.9	12.9	42	0.3	10	23	90	0.0	1019.7	230	0.000	1.0
20260429 10:15	13.2	13.2	13.2	42	0.6	10	21	68	0.0	1019.8	228	0.000	1.0
20260429 10:20	13.0	13.0	13.0	41	0.1	13	29	90	0.0	1019.7	219	0.000	1.0
20260429 10:25	13.2	13.2	13.2	42	0.5	8	18	68	0.0	1019.7	205	0.000	1.0
20260429 10:30	13.0	13.0	13.0	43	0.7	8	14	90	0.0	1019.6	186	0.000	1.0
20260429 10:35	12.9	12.9	12.9	43	0.7	6	21	68	0.0	1019.7	174	0.000	1.0
20260429 10:40	13.0	13.0	13.0	44	1.0	6	16	68	0.0	1019.6	161	0.000	1.0
20260429 10:45	13.2	13.2	13.2	43	0.9	8	18	68	0.0	1019.6	134	0.000	1.0
20260429 10:50	13.1	13.1	13.1	42	0.5	8	16	68	0.0	1019.7	106	0.000	1.0
20260429 10:55	13.4	13.4	13.4	42	0.7	10	24	68	0.0	1019.7	100	0.000	1.1
20260429 11:00	13.4	13.4	13.4	41	0.4	11	23	68	0.0	1019.8	84	0.152	1.0
20260429 11:05	13.6	13.6	13.6	41	0.6	14	23	112	0.0	1019.8	88	0.000	1.1
20260429 11:10	13.9	13.9	13.9	41	0.9	13	23	90	0.0	1019.7	118	0.000	1.1
20260429 11:15	14.0	14.0	14.0	41	1.0	6	16	68	0.0	1019.8	135	0.000	1.2
20260429 11:20	13.9	13.9	13.9	42	1.2	8	26	68	0.0	1019.8	144	0.000	1.2
20260429 11:25	13.5	13.5	13.5	41	0.5	13	23	68	0.0	1019.8	140	0.000	1.2
20260429 11:30	13.5	13.5	13.5	42	0.8	10	19	68	0.0	1019.8	129	0.000	1.2
20260429 11:35	13.8	13.8	13.8	40	0.4	11	23	90	0.0	1019.8	132	0.000	1.3
20260429 11:40	14.1	14.1	14.1	41	1.0	8	19	68	0.0	1019.9	134	0.000	1.3
20260429 11:45	14.1	14.1	14.1	40	0.7	11	24	68	0.0	1019.9	116	0.000	1.2
20260429 11:50	14.3	14.3	14.3	41	1.2	8	19	90	0.0	1019.8	104	0.000	1.2
20260429 11:55	14.3	14.3	14.3	40	0.9	11	23	68	0.0	1019.8	103	0.000	1.2
20260429 12:00	14.4	14.4	14.4	40	1.0	13	29	90	0.0	1019.8	128	0.152	1.3
20260429 12:05	14.7	14.7	14.7	39	0.9	13	27	68	0.0	1020.0	619	0.000	1.3
20260429 12:10	14.8	14.8	14.8	40	1.4	11	21	68	0.0	1019.9	735	0.000	2.5
20260429 12:15	15.1	15.1	15.1	39	1.2	11	24	90	0.0	1019.9	700	0.000	2.6
20260429 12:20	15.4	15.4	15.4	38	1.2	11	26	112	0.0	1019.8	772	0.000	2.9
20260429 12:25	15.7	15.7	15.7	38	1.4	14	31	90	0.0	1019.8	771	0.000	2.9
20260429 12:30	15.7	15.7	15.7	38	1.4	13	21	90	0.0	1019.8	783	0.000	3.0
20260429 12:35	15.8	15.8	15.8	37	1.2	13	23	90	0.0	1019.7	785	0.000	3.0
20260429 12:40	16.1	16.1	16.1	39	2.1	11	21	90	0.0	1019.7	689	0.000	2.7
20260429 12:45	15.8	15.8	15.8	38	1.5	11	23	68	0.0	1019.5	575	0.000	2.4
20260429 12:50	15.6	15.6	15.6	39	1.7	16	27	45	0.0	1019.6	714	0.000	2.8
20260429 12:55	15.4	15.4	15.4	39	1.5	14	26	45	0.0	1019.7	745	0.000	2.9
20260429 13:00	15.7	15.7	15.7	40	2.1	10	21	45	0.0	1019.6	748	0.483	2.9
20260429 13:05	15.7	15.7	15.7	39	1.8	10	18	45	0.0	1019.7	751	0.000	2.9
20260429 13:10	15.9	15.9	15.9	39	2.0	11	21	90	0.0	1019.6	752	0.000	2.9
20260429 13:15	16.3	16.3	16.3	39	2.3	10	18	68	0.0	1019.6	752	0.000	2.9
20260429 13:20	16.2	16.2	16.2	38	1.9	11	21	45	0.0	1019.7	751	0.000	2.9
20260429 13:25	16.4	16.4	16.4	39	2.4	8	24	68	0.0	1019.6	751	0.000	2.9
20260429 13:30	16.4	16.4	16.4	39	2.4	13	26	45	0.0	1019.5	750	0.000	2.9
20260429 13:35	16.9	16.9	16.9	37	2.1	11	21	90	0.0	1019.5	750	0.000	2.9
20260429 13:40	16.8	16.8	16.8	38	2.4	10	19	45	0.0	1019.4	746	0.000	2.9
20260429 13:45	16.8	16.8	16.8	38	2.4	13	23	68	0.0	1019.4	745	0.000	2.9
20260429 13:50	16.8	16.8	16.8	37	2.1	11	23	68	0.0	1019.5	744	0.000	2.9
20260429 13:55	17.1	17.1	17.1	37	2.2	10	19	90	0.0	1019.2	741	0.000	2.8
20260429 14:00	17.3	17.3	17.3	37	2.4	13	29	68	0.0	1019.3	737	0.483	2.8
20260429 14:05	17.3	17.3	17.3	37	2.5	11	24	90	0.0	1019.4	736	0.000	2.8
20260429 14:10	17.2	17.2	17.2	36	2.0	11	26	68	0.0	1019.6	732	0.000	2.8
20260429 14:15	17.0	17.0	17.0	37	2.2	13	23	68	0.0	1019.5	728	0.000	2.7
20260429 14:20	17.1	17.1	17.1	37	2.2	10	27	90	0.0	1019.5	724	0.000	2.7
20260429 14:25	17.5	17.5	17.5	36	2.3	10	31	90	0.0	1019.4	720	0.000	2.7
20260429 14:30	17.9	17.9	17.9	36	2.7	10	19	90	0.0	1019.3	715	0.000	2.6
20260429 14:35	17.9	17.9	17.9	37	3.0	10	21	68	0.0	1019.4	710	0.000	2.6
20260429 14:40	17.8	17.8	17.8	36	2.6	8	21	22	0.0	1019.3	707	0.000	2.6
20260429 14:45	17.4	17.4	17.4	36	2.2	10	19	45	0.0	1019.4	700	0.000	2.5
20260429 14:50	17.8	17.8	17.8	36	2.5	11	24	68	0.0	1019.3	695	0.000	2.5
20260429 14:55	17.8	17.8	17.8	37	2.9	13	26	90	0.0	1019.2	687	0.000	2.4
20260429 15:00	17.8	17.8	17.8	36	2.5	13	24	45	0.0	1019.3	679	0.483	2.4
20260429 15:05	17.8	17.8	17.8	37	2.9	8	21	68	0.0	1019.2	671	0.000	2.3
20260429 15:10	18.2	18.2	18.2	35	2.5	8	23	68	0.0	1019.1	660	0.000	2.2
20260429 15:15	18.2	18.2	18.2	36	2.9	8	21	68	0.0	1019.2	659	0.000	2.2
20260429 15:20	18.1	18.1	18.1	35	2.4	10	24	45	0.0	1019.2	650	0.000	2.2
20260429 15:25	18.0	18.0	18.0	35	2.3	13	24	45	0.0	1019.2	640	0.000	2.1
20260429 15:30	17.7	17.7	17.7	36	2.5	10	21	68	0.0	1019.4	635	0.000	2.1
20260429 15:35	18.2	18.2	18.2	37	3.3	8	16	68	0.0	1019.2	626	0.000	2.0
20260429 15:40	18.3	18.3	18.3	35	2.6	8	16	45	0.0	1019.1	615	0.000	2.0
20260429 15:45	18.6	18.6	18.6	35	2.8	6	18	90	0.0	1019.0	609	0.000	1.9
20260429 15:50	18.3	18.3	18.3	34	2.2	11	21	45	0.0	1019.1	600	0.000	1.9
20260429 15:55	18.7	18.7	18.7	35	2.9	6	14	68	0.0	1018.9	590	0.000	1.8
20260429 16:00	19.1	19.1	19.1	32	2.0	8	21	90	0.0	1018.9	579	0.432	1.7
20260429 16:05	19.1	19.1	19.1	32	2.0	10	24	68	0.0	1019.0	572	0.000	1.7
20260429 16:10	18.5	18.5	18.5	33	1.9	13	24	68	0.0	1019.2	559	0.000	1.6
20260429 16:15	18.6	18.6	18.6	34	2.4	8	18	68	0.0	1019.2	550	0.000	1.6
20260429 16:20	18.7	18.7	18.7	33	2.1	8	18	68	0.0	1019.0	540	0.000	1.5
20260429 16:25	18.6	18.6	18.6	34	2.4	10	19	68	0.0	1019.1	530	0.000	1.4
20260429 16:30	18.9	18.9	18.9	33	2.3	6	18	68	0.0	1018.9	517	0.000	1.4
20260429 16:35	18.8	18.8	18.8	32	1.7	10	21	68	0.0	1019.0	506	0.000	1.3
20260429 16:40	18.6	18.6	18.6	32	1.5	6	16	68	0.0	1019.0	494	0.000	1.3
20260429 16:45	18.8	18.8	18.8	31	1.3	10	18	45	0.0	1018.9	480	0.000	1.2
20260429 16:50	18.6	18.6	18.6	32	1.5	11	21	45	0.0	1019.1	472	0.000	1.2
20260429 16:55	18.6	18.6	18.6	30	0.6	13	21	45	0.0	1019.0	461	0.000	1.1
20260429 17:00	18.2	18.2	18.2	31	0.8	13	21	45	0.0	1019.1	448	0.381	1.0
20260429 17:05	18.3	18.3	18.3	31	0.9	11	21	45	0.0	1019.2	437	0.000	1.0
20260429 17:10	18.3	18.3	18.3	31	0.9	11	21	45	0.0	1019.2	426	0.000	0.9
20260429 17:15	18.1	18.1	18.1	30	0.3	14	24	45	0.0	1019.2	412	0.000	0.9
20260429 17:20	17.8	17.8	17.8	30	0.0	14	24	22	0.0	1019.2	400	0.000	0.8
20260429 17:25	17.9	17.9	17.9	30	0.1	14	23	22	0.0	1019.2	389	0.000	0.8
20260429 17:30	18.2	18.2	18.2	30	0.4	8	14	68	0.0	1019.1	377	0.000	0.7
20260429 17:35	18.4	18.4	18.4	31	1.0	8	18	68	0.0	1019.1	364	0.000	0.7
20260429 17:40	18.7	18.7	18.7	30	0.8	8	21	68	0.0	1019.0	351	0.000	0.7
20260429 17:45	18.9	18.9	18.9	31	1.4	8	18	90	0.0	1019.1	337	0.000	0.6
20260429 17:50	18.6	18.6	18.6	29	0.2	10	18	45	0.0	1019.0	324	0.000	0.6
20260429 17:55	18.3	18.3	18.3	31	0.9	8	18	68	0.0	1019.1	310	0.000	0.5
20260429 18:00	18.2	18.2	18.2	31	0.8	10	21	45	0.0	1019.1	299	0.305	0.5
20260429 18:05	18.3	18.3	18.3	32	1.3	10	18	68	0.0	1019.1	288	0.000	0.5
20260429 18:10	18.3	18.3	18.3	31	0.9	11	19	68	0.0	1019.2	275	0.000	0.1
20260429 18:15	18.4	18.4	18.4	32	1.4	6	18	68	0.0	1019.2	262	0.000	0.0
20260429 18:20	18.4	18.4	18.4	31	1.0	8	18	68	0.0	1019.2	249	0.000	0.0
20260429 18:25	18.3	18.3	18.3	33	1.7	6	11	68	0.0	1019.1	240	0.000	0.0
20260429 18:30	18.2	18.2	18.2	32	1.2	10	23	68	0.0	1019.3	226	0.000	0.0
20260429 18:35	17.9	17.9	17.9	32	1.0	8	19	90	0.0	1019.4	213	0.000	0.0
20260429 18:40	17.8	17.8	17.8	32	0.9	10	21	68	0.0	1019.4	200	0.000	0.0
20260429 18:45	17.9	17.9	17.9	32	1.0	6	13	90	0.0	1019.4	185	0.000	0.0
20260429 18:50	17.6	17.6	17.6	30	-0.2	10	19	68	0.0	1019.5	171	0.000	0.0
20260429 18:55	17.1	17.1	17.1	30	-0.6	10	19	45	0.0	1019.5	141	0.000	0.0
20260429 19:00	17.0	17.0	17.0	31	-0.3	8	21	68	0.0	1019.6	116	0.203	0.0
20260429 19:05	16.9	16.9	16.9	33	0.5	6	18	90	0.0	1019.5	100	0.000	0.0
20260429 19:10	16.8	16.8	16.8	32	-0.0	8	16	68	0.0	1019.6	39	0.000	0.0
20260429 19:15	16.6	16.6	16.6	32	-0.2	8	19	68	0.0	1019.6	37	0.000	0.0
20260429 19:20	16.3	16.3	16.3	32	-0.4	8	19	68	0.0	1019.7	35	0.000	0.0
20260429 19:25	16.2	16.2	16.2	32	-0.5	8	18	90	0.0	1019.9	33	0.000	0.0
20260429 19:30	16.1	16.1	16.1	31	-1.1	8	16	90	0.0	1020.1	32	0.000	0.0
20260429 19:35	15.9	15.9	15.9	31	-1.2	6	19	68	0.0	1020.1	29	0.000	0.0
20260429 19:40	15.7	15.7	15.7	31	-1.4	6	16	68	0.0	1020.1	27	0.000	0.0
20260429 19:45	15.5	15.5	15.5	31	-1.6	6	14	68	0.0	1020.3	24	0.000	0.0
20260429 19:50	15.3	15.3	15.3	31	-1.7	6	11	68	0.0	1020.3	19	0.000	0.0
20260429 19:55	15.1	15.1	15.1	32	-1.5	6	14	68	0.0	1020.4	17	0.000	0.0
20260429 20:00	14.9	14.9	14.9	32	-1.7	6	14	68	0.0	1020.5	15	0.102	0.0
20260429 20:05	14.7	14.7	14.7	33	-1.4	5	8	68	0.0	1020.5	12	0.000	0.0
20260429 20:10	14.4	14.4	14.4	34	-1.2	5	13	68	0.0	1020.7	9	0.000	0.0
20260429 20:15	14.2	14.2	14.2	34	-1.5	3	8	68	0.0	1020.8	7	0.000	0.0
20260429 20:20	13.9	13.9	13.9	35	-1.3	5	8	68	0.0	1020.8	4	0.000	0.0
20260429 20:25	13.7	13.7	13.7	35	-1.5	3	10	68	0.0	1020.9	0	0.000	0.0
20260429 20:30	13.4	13.4	13.4	35	-1.7	5	8	68	0.0	1021.1	0	0.000	0.0
20260429 20:35	13.3	13.3	13.3	36	-1.5	3	10	68	0.0	1021.2	0	0.000	0.0
20260429 20:40	13.1	13.1	13.1	36	-1.6	5	14	68	0.0	1021.3	0	0.000	0.0
20260429 20:45	12.9	12.9	12.9	36	-1.8	5	11	68	0.0	1021.3	0	0.000	0.0
20260429 20:50	12.8	12.8	12.8	36	-1.9	3	8	68	0.0	1021.4	0	0.000	0.0
20260429 20:55	12.6	12.6	12.6	37	-1.7	5	8	68	0.0	1021.5	0	0.000	0.0
20260429 21:00	12.4	12.4	12.4	37	-1.8	3	8	68	0.0	1021.6	0	0.051	0.0
20260429 21:05	12.3	12.3	12.3	38	-1.6	3	8	68	0.0	1021.6	0	0.000	0.0
20260429 21:10	12.1	12.1	12.1	38	-1.8	3	8	68	0.0	1021.6	0	0.000	0.0
20260429 21:15	11.8	11.8	11.8	39	-1.7	6	10	45	0.0	1021.8	0	0.000	0.0
20260429 21:20	11.6	11.6	11.6	39	-1.9	6	14	45	0.0	1022.0	0	0.000	0.0
20260429 21:25	11.4	11.4	11.4	39	-2.0	6	16	45	0.0	1022.0	0	0.000	0.0
20260429 21:30	11.3	11.3	11.3	40	-1.8	6	14	68	0.0	1022.1	0	0.000	0.0
20260429 21:35	11.2	11.2	11.2	41	-1.5	8	14	45	0.0	1022.2	0	0.000	0.0
20260429 21:40	11.2	11.2	11.2	41	-1.6	8	16	45	0.0	1022.3	0	0.000	0.0
20260429 21:45	11.1	11.1	11.1	41	-1.7	8	16	45	0.0	1022.4	0	0.000	0.0
20260429 21:50	10.9	10.9	10.9	42	-1.5	8	16	45	0.0	1022.4	0	0.000	0.0
20260429 21:55	10.7	10.7	10.7	42	-1.7	6	14	45	0.0	1022.5	0	0.000	0.0
20260429 22:00	10.7	10.7	10.7	42	-1.7	8	14	45	0.0	1022.6	0	0.076	0.0
20260429 22:05	10.7	10.7	10.7	42	-1.7	8	14	68	0.0	1022.6	0	0.000	0.0
20260429 22:10	10.8	10.8	10.8	42	-1.6	6	16	45	0.0	1022.6	0	0.000	0.0
20260429 22:15	10.8	10.8	10.8	42	-1.6	8	23	45	0.0	1022.5	0	0.000	0.0
20260429 22:20	10.7	10.7	10.7	42	-1.7	8	16	45	0.0	1022.6	0	0.000	0.0
20260429 22:25	10.6	10.6	10.6	42	-1.8	8	13	45	0.0	1022.7	0	0.000	0.0
20260429 22:30	10.6	10.6	10.6	42	-1.8	8	16	45	0.0	1022.8	0	0.000	0.0
20260429 22:35	10.4	10.4	10.4	43	-1.6	6	14	45	0.0	1022.9	0	0.000	0.0
20260429 22:40	10.2	10.2	10.2	44	-1.5	6	11	45	0.0	1022.8	0	0.000	0.0
20260429 22:45	9.8	9.2	9.8	44	-1.8	6	10	45	0.0	1022.9	0	0.000	0.0
20260429 22:50	9.6	9.6	9.6	45	-1.7	5	10	45	0.0	1023.0	0	0.000	0.0
20260429 22:55	9.3	8.5	9.3	46	-1.7	6	11	45	0.0	1023.1	0	0.000	0.0
20260429 23:00	9.2	8.4	9.2	46	-1.8	6	10	45	0.0	1023.2	0	0.076	0.0
20260429 23:05	9.1	8.3	9.1	47	-1.6	6	11	45	0.0	1023.1	0	0.000	0.0
20260429 23:10	9.1	8.3	9.1	47	-1.7	6	11	45	0.0	1023.1	0	0.000	0.0
20260429 23:15	9.2	8.4	9.2	47	-1.6	6	16	68	0.0	1023.1	0	0.000	0.0
20260429 23:20	9.2	9.2	9.2	47	-1.6	5	16	68	0.0	1023.2	0	0.000	0.0
20260429 23:25	9.1	9.1	9.1	47	-1.6	5	11	68	0.0	1023.2	0	0.000	0.0
20260429 23:30	9.1	8.0	9.1	47	-1.6	8	26	68	0.0	1023.3	0	0.000	0.0
20260429 23:35	9.3	7.6	9.3	47	-1.4	11	19	68	0.0	1023.3	0	0.000	0.0
20260429 23:40	9.4	8.0	9.4	47	-1.3	10	24	68	0.0	1023.4	0	0.000	0.0
20260429 23:45	9.4	7.7	9.4	48	-1.1	11	21	45	0.0	1023.4	0	0.000	0.0
20260429 23:50	9.3	8.2	9.3	48	-1.2	8	21	68	0.0	1023.5	0	0.000	0.0
20260429 23:55	9.2	8.0	9.2	49	-1.0	8	21	68	0.0	1023.5	0	0.000	0.0



Please note the license to use and transfer of this data:
https://creativecommons.org/licenses/by-nc-sa/3.0/deed.en

Bitte beachten sie die Lizenz zur Verwertung und Weitergabe der Daten:
https://creativecommons.org/licenses/by-nc-sa/3.0/deed.de

zurück zur Übersicht der Archivdaten (Monats und Tagesdaten)

Cookies helfen bei der Bereitstellung von Inhalten. Diese Website verwendet Cookies. Mit der Nutzung der Website erklären Sie sich damit einverstanden, dass Cookies auf Ihrem Computer gespeichert werden. Außerdem bestätigen Sie, dass Sie unsere Datenschutzerklärung gelesen und verstanden haben. Wenn Sie nicht einverstanden sind, verlassen Sie die Website.Weitere Information